Location: Brookview Estates
(36.0476°N, 86.6931°W)
Time: 23:00:47
(UTC+00:00)

CZ-4B R/B - Pass Details

Date: 30 March 2020
Orbit: 391 x 466 km, 97.6° (Epoch: 23 May)

Event Time Altitude Azimuth Distance (km) Brightness Sun altitude
Exits shadow 09:24:42 29° 23° (NNE) 880 3.2 -26.1°
Drops below altitude 10° 09:26:44 10° 2° (N) 1,625 4.5 -25.7°
Sets 09:28:51 0° 356° (N) 2,509 5.5 -25.3°
